TimeCEST,TemperatureF,Dew PointF,Humidity,Sea Level PressureIn,VisibilityMPH,Wind Direction,Wind SpeedMPH,Gust SpeedMPH,PrecipitationIn,Events,Conditions,WindDirDegrees,DateUTC
12:25 AM,55.4,50.0,82,29.86,6.2,South,12.7,-,N/A,,Mostly Cloudy,190,2012-10-02 22:25:00
12:55 AM,55.4,50.0,82,29.86,6.2,South,13.8,-,N/A,,Overcast,190,2012-10-02 22:55:00
1:25 AM,55.4,50.0,82,29.83,6.2,South,13.8,-,N/A,,Overcast,180,2012-10-02 23:25:00
1:55 AM,55.4,50.0,82,29.83,6.2,South,13.8,-,N/A,,Overcast,190,2012-10-02 23:55:00
2:25 AM,57.2,50.0,77,29.83,6.2,SSW,13.8,-,N/A,,Light Drizzle,200,2012-10-03 00:25:00
2:55 AM,55.4,51.8,88,29.83,6.2,South,12.7,-,N/A,Rain,Heavy Drizzle,190,2012-10-03 00:55:00
3:25 AM,55.4,51.8,88,29.83,6.2,South,12.7,-,N/A,,Drizzle,190,2012-10-03 01:25:00
3:26 AM,55.4,51.8,88,29.83,6.2,South,12.7,-,N/A,,Drizzle,190,2012-10-03 01:26:00
3:55 AM,55.4,51.8,88,29.80,6.2,SSW,13.8,-,N/A,,Drizzle,200,2012-10-03 01:55:00
4:07 AM,55.4,51.8,88,29.80,6.2,SSW,12.7,-,N/A,,Drizzle,200,2012-10-03 02:07:00
4:25 AM,55.4,53.6,94,29.80,6.2,SSW,13.8,-,N/A,,Overcast,200,2012-10-03 02:25:00
4:32 AM,55.4,53.6,94,29.80,6.2,SSW,12.7,-,N/A,,Mostly Cloudy,200,2012-10-03 02:32:00
4:40 AM,55.4,53.6,94,29.80,6.2,SSW,13.8,-,N/A,,Mostly Cloudy,200,2012-10-03 02:40:00
4:55 AM,55.4,53.6,94,29.80,6.2,SSW,16.1,-,N/A,,Overcast,200,2012-10-03 02:55:00
5:13 AM,55.4,53.6,94,29.80,6.2,SSW,13.8,-,N/A,,Mostly Cloudy,200,2012-10-03 03:13:00
5:14 AM,55.4,53.6,94,29.80,6.2,SSW,13.8,-,N/A,,Mostly Cloudy,200,2012-10-03 03:14:00
5:25 AM,55.4,53.6,94,29.80,6.2,SSW,13.8,-,N/A,,Overcast,200,2012-10-03 03:25:00
5:39 AM,55.4,53.6,94,29.80,6.2,SSW,15.0,-,N/A,,Mostly Cloudy,200,2012-10-03 03:39:00
5:55 AM,55.4,53.6,94,29.80,6.2,SSW,13.8,-,N/A,,Mostly Cloudy,200,2012-10-03 03:55:00
6:01 AM,55.4,53.6,94,29.77,6.2,SSW,13.8,-,N/A,,Mostly Cloudy,200,2012-10-03 04:01:00
6:21 AM,57.2,53.6,88,29.77,6.2,SSW,12.7,-,N/A,,Overcast,200,2012-10-03 04:21:00
6:25 AM,55.4,53.6,94,29.77,6.2,SSW,12.7,-,N/A,,Overcast,200,2012-10-03 04:25:00
6:29 AM,55.4,51.8,88,29.77,6.2,SSW,13.8,-,N/A,,Mostly Cloudy,200,2012-10-03 04:29:00
6:30 AM,55.4,51.8,88,29.77,6.2,SSW,12.7,-,N/A,,Mostly Cloudy,200,2012-10-03 04:30:00
6:55 AM,57.2,51.8,82,29.77,6.2,SSW,13.8,-,N/A,,Overcast,200,2012-10-03 04:55:00
7:25 AM,57.2,51.8,82,29.77,6.2,SSW,13.8,-,N/A,,Mostly Cloudy,200,2012-10-03 05:25:00
7:36 AM,57.2,51.8,82,29.77,6.2,SSW,13.8,-,N/A,,Scattered Clouds,210,2012-10-03 05:36:00
7:55 AM,57.2,51.8,82,29.77,6.2,SSW,12.7,-,N/A,,Overcast,210,2012-10-03 05:55:00
8:03 AM,57.2,51.8,82,29.77,6.2,SSW,12.7,-,N/A,,Mostly Cloudy,210,2012-10-03 06:03:00
8:25 AM,57.2,51.8,82,29.77,6.2,SSW,15.0,-,N/A,,Mostly Cloudy,200,2012-10-03 06:25:00
8:29 AM,57.2,51.8,82,29.77,6.2,SSW,15.0,-,N/A,,Mostly Cloudy,200,2012-10-03 06:29:00
8:35 AM,57.2,51.8,82,29.77,6.2,SSW,15.0,-,N/A,,Mostly Cloudy,200,2012-10-03 06:35:00
8:45 AM,57.2,51.8,82,29.77,6.2,SSW,13.8,-,N/A,,Overcast,210,2012-10-03 06:45:00
8:55 AM,57.2,51.8,82,29.77,6.2,SSW,13.8,-,N/A,,Overcast,210,2012-10-03 06:55:00
9:25 AM,57.2,51.8,82,29.77,6.2,SSW,12.7,-,N/A,,Overcast,210,2012-10-03 07:25:00
9:44 AM,57.2,51.8,82,29.77,6.2,SSW,15.0,26.5,N/A,Rain,Light Rain,210,2012-10-03 07:44:00
9:48 AM,57.2,51.8,82,29.77,6.2,SSW,15.0,26.5,N/A,Rain,Heavy Drizzle,210,2012-10-03 07:48:00
9:55 AM,57.2,51.8,82,29.77,6.2,SSW,15.0,-,N/A,Rain,Light Rain,200,2012-10-03 07:55:00
9:56 AM,57.2,51.8,82,29.77,6.2,SSW,15.0,-,N/A,Rain,Light Rain,200,2012-10-03 07:56:00
10:05 AM,57.2,51.8,82,29.77,4.3,SSW,15.0,-,N/A,,Drizzle,200,2012-10-03 08:05:00
10:25 AM,55.4,53.6,94,29.77,6.2,SSW,10.4,-,N/A,Rain,Light Rain,210,2012-10-03 08:25:00
10:38 AM,55.4,53.6,94,29.77,6.2,SSW,11.5,-,N/A,,Light Drizzle,200,2012-10-03 08:38:00
10:55 AM,57.2,53.6,88,29.77,6.2,SSW,12.7,-,N/A,Rain,Light Rain,200,2012-10-03 08:55:00
11:11 AM,55.4,53.6,94,29.77,6.2,SSW,12.7,-,N/A,Rain,Rain Showers,200,2012-10-03 09:11:00
11:12 AM,55.4,53.6,94,29.77,6.2,SSW,12.7,-,N/A,Rain,Light Rain Showers,200,2012-10-03 09:12:00
11:25 AM,57.2,53.6,88,29.77,6.2,SSW,13.8,-,N/A,,Light Drizzle,200,2012-10-03 09:25:00
11:29 AM,57.2,53.6,88,29.77,6.2,SSW,13.8,-,N/A,,Mostly Cloudy,200,2012-10-03 09:29:00
11:36 AM,57.2,53.6,88,29.77,4.3,SSW,13.8,-,N/A,,Mostly Cloudy,200,2012-10-03 09:36:00
11:48 AM,57.2,53.6,88,29.77,4.3,SSW,13.8,-,N/A,Rain,Light Rain Showers,210,2012-10-03 09:48:00
11:55 AM,55.4,53.6,94,29.77,5.6,SW,12.7,-,N/A,Rain,Light Rain Showers,220,2012-10-03 09:55:00
11:59 AM,55.4,55.4,100,29.77,5.6,SW,12.7,-,N/A,Rain,Light Rain,220,2012-10-03 09:59:00
12:02 PM,57.2,55.4,94,29.77,5.6,SSW,11.5,-,N/A,Rain,Light Rain,210,2012-10-03 10:02:00
12:16 PM,57.2,55.4,94,29.77,6.2,SSW,13.8,-,N/A,Rain,Light Rain,210,2012-10-03 10:16:00
12:25 PM,57.2,55.4,94,29.77,6.2,SW,12.7,-,N/A,,Drizzle,220,2012-10-03 10:25:00
12:32 PM,57.2,55.4,94,29.77,6.2,SSW,13.8,-,N/A,,Mostly Cloudy,210,2012-10-03 10:32:00
12:39 PM,57.2,55.4,94,29.77,6.2,SSW,12.7,-,N/A,,Mostly Cloudy,210,2012-10-03 10:39:00
12:55 PM,57.2,55.4,94,29.77,6.2,SSW,11.5,-,N/A,,Mostly Cloudy,210,2012-10-03 10:55:00
1:13 PM,59.0,55.4,88,29.77,6.2,SSW,11.5,-,N/A,,Mostly Cloudy,210,2012-10-03 11:13:00
1:25 PM,59.0,55.4,88,29.77,6.2,SSW,11.5,-,N/A,,Mostly Cloudy,210,2012-10-03 11:25:00
1:40 PM,59.0,55.4,88,29.77,6.2,SW,10.4,-,N/A,,Mostly Cloudy,220,2012-10-03 11:40:00
1:55 PM,59.0,55.4,88,29.77,6.2,SW,10.4,-,N/A,,Mostly Cloudy,220,2012-10-03 11:55:00
2:18 PM,59.0,53.6,82,29.77,6.2,SW,11.5,-,N/A,,Mostly Cloudy,220,2012-10-03 12:18:00
2:25 PM,59.0,53.6,82,29.77,6.2,SSW,10.4,-,N/A,,Mostly Cloudy,210,2012-10-03 12:25:00
2:55 PM,59.0,51.8,77,29.77,6.2,SSW,12.7,25.3,N/A,,Mostly Cloudy,210,2012-10-03 12:55:00
3:25 PM,59.0,51.8,77,29.77,6.2,SW,12.7,-,N/A,,Overcast,220,2012-10-03 13:25:00
3:55 PM,60.8,51.8,72,29.77,6.2,SW,12.7,-,N/A,,Mostly Cloudy,230,2012-10-03 13:55:00
4:10 PM,59.0,51.8,77,29.77,6.2,SW,8.1,-,N/A,Rain,Light Rain,220,2012-10-03 14:10:00
4:16 PM,59.0,51.8,77,29.77,4.3,SW,9.2,-,N/A,Rain,Rain,220,2012-10-03 14:16:00
4:25 PM,57.2,53.6,88,29.77,4.3,SW,9.2,-,N/A,Rain,Rain,220,2012-10-03 14:25:00
4:29 PM,57.2,53.6,88,29.77,-9999.0,WSW,9.2,-,N/A,Rain,Heavy Rain Showers,240,2012-10-03 14:29:00
4:30 PM,55.4,53.6,94,29.77,5.6,WSW,8.1,-,N/A,Rain,Heavy Rain Showers,250,2012-10-03 14:30:00
4:44 PM,55.4,53.6,94,29.77,6.2,WSW,8.1,-,N/A,Rain,Rain,240,2012-10-03 14:44:00
4:55 PM,55.4,53.6,94,29.77,6.2,SW,9.2,-,N/A,Rain,Light Rain Showers,230,2012-10-03 14:55:00
4:59 PM,55.4,53.6,94,29.77,6.2,SW,9.2,-,N/A,Rain,Light Rain Showers,220,2012-10-03 14:59:00
5:04 PM,55.4,53.6,94,29.77,6.2,SW,8.1,-,N/A,Rain,Light Rain,230,2012-10-03 15:04:00
5:10 PM,55.4,53.6,94,29.77,6.2,WSW,8.1,-,N/A,Rain,Light Rain Showers,240,2012-10-03 15:10:00
5:16 PM,55.4,53.6,94,29.77,6.2,WSW,9.2,-,N/A,Rain,Light Rain,250,2012-10-03 15:16:00
5:20 PM,55.4,53.6,94,29.77,6.2,WSW,6.9,-,N/A,Rain,Light Rain,250,2012-10-03 15:20:00
5:25 PM,55.4,53.6,94,29.77,6.2,WSW,6.9,-,N/A,Rain,Light Rain,240,2012-10-03 15:25:00
5:30 PM,55.4,53.6,94,29.77,6.2,SW,5.8,-,N/A,Rain,Light Rain,230,2012-10-03 15:30:00
5:50 PM,55.4,53.6,94,29.77,6.2,SW,6.9,-,N/A,Rain,Rain Showers,230,2012-10-03 15:50:00
5:55 PM,55.4,53.6,94,29.77,6.2,SW,5.8,-,N/A,Rain,Light Rain Showers,220,2012-10-03 15:55:00
6:00 PM,55.4,53.6,94,29.77,6.2,SSW,6.9,-,N/A,Rain,Light Rain Showers,210,2012-10-03 16:00:00
6:04 PM,55.4,53.6,94,29.77,6.2,SW,6.9,-,N/A,Rain,Light Rain Showers,220,2012-10-03 16:04:00
6:25 PM,53.6,51.8,94,29.77,6.2,SW,8.1,-,N/A,Rain,Light Rain Showers,220,2012-10-03 16:25:00
6:55 PM,53.6,51.8,94,29.77,6.2,SW,6.9,-,N/A,Rain,Light Rain,230,2012-10-03 16:55:00
7:25 PM,53.6,51.8,94,29.77,6.2,SW,8.1,-,N/A,Rain,Light Rain,220,2012-10-03 17:25:00
7:55 PM,53.6,51.8,94,29.77,6.2,SSW,6.9,-,N/A,Rain,Light Rain,210,2012-10-03 17:55:00
8:25 PM,53.6,51.8,94,29.77,6.2,SSW,9.2,-,N/A,Rain,Light Rain,200,2012-10-03 18:25:00
8:36 PM,53.6,51.8,94,29.77,6.2,South,9.2,-,N/A,Rain,Light Rain,190,2012-10-03 18:36:00
8:55 PM,53.6,51.8,94,29.74,6.2,South,10.4,-,N/A,,Drizzle,180,2012-10-03 18:55:00
9:04 PM,53.6,51.8,94,29.74,6.2,South,9.2,-,N/A,Rain,Light Rain Showers,180,2012-10-03 19:04:00
9:10 PM,53.6,51.8,94,29.74,4.3,South,9.2,-,N/A,Rain,Light Rain,190,2012-10-03 19:10:00
9:14 PM,53.6,51.8,94,29.74,4.3,South,10.4,-,N/A,Rain,Light Rain,190,2012-10-03 19:14:00
9:21 PM,53.6,51.8,94,29.74,5.0,South,10.4,-,N/A,Rain,Light Rain,180,2012-10-03 19:21:00
9:25 PM,53.6,51.8,94,29.74,5.6,South,10.4,-,N/A,Rain,Light Rain,180,2012-10-03 19:25:00
9:34 PM,53.6,51.8,94,29.74,4.3,South,11.5,-,N/A,Rain,Light Rain,180,2012-10-03 19:34:00
9:38 PM,53.6,51.8,94,29.74,5.0,South,11.5,-,N/A,Rain,Light Rain Showers,190,2012-10-03 19:38:00
9:42 PM,53.6,51.8,94,29.74,4.3,South,12.7,-,N/A,Rain,Light Rain,190,2012-10-03 19:42:00
9:45 PM,53.6,51.8,94,29.74,5.6,South,12.7,-,N/A,Rain,Light Rain,190,2012-10-03 19:45:00
9:46 PM,53.6,51.8,94,29.74,4.3,South,12.7,-,N/A,Rain,Rain,190,2012-10-03 19:46:00
9:55 PM,53.6,51.8,94,29.74,4.3,South,12.7,-,N/A,,Drizzle,190,2012-10-03 19:55:00
9:58 PM,53.6,51.8,94,29.74,5.0,South,12.7,-,N/A,,Drizzle,190,2012-10-03 19:58:00
10:09 PM,51.8,51.8,100,29.74,6.2,South,13.8,-,N/A,,Light Drizzle,190,2012-10-03 20:09:00
10:25 PM,51.8,51.8,100,29.74,6.2,South,12.7,-,N/A,,Drizzle,190,2012-10-03 20:25:00
10:55 PM,51.8,50.0,94,29.74,6.2,SSW,9.2,-,N/A,,Light Drizzle,200,2012-10-03 20:55:00
10:56 PM,51.8,50.0,94,29.74,4.3,SSW,8.1,-,N/A,,Heavy Drizzle,210,2012-10-03 20:56:00
11:05 PM,51.8,50.0,94,29.77,-9999.0,SSW,8.1,-,N/A,,Heavy Drizzle,210,2012-10-03 21:05:00
11:09 PM,51.8,50.0,94,29.74,3.1,SSW,8.1,-,N/A,,Heavy Drizzle,210,2012-10-03 21:09:00
11:15 PM,51.8,50.0,94,29.74,5.0,SSW,8.1,-,N/A,,Drizzle,200,2012-10-03 21:15:00
11:25 PM,51.8,50.0,94,29.74,6.2,SSW,6.9,-,N/A,,Drizzle,200,2012-10-03 21:25:00
11:30 PM,51.8,50.0,94,29.74,4.3,SSW,6.9,-,N/A,,Drizzle,210,2012-10-03 21:30:00
11:38 PM,51.8,50.0,94,29.74,5.0,SSW,5.8,-,N/A,,Heavy Drizzle,210,2012-10-03 21:38:00
11:49 PM,51.8,50.0,94,29.74,4.3,SSW,6.9,-,N/A,,Heavy Drizzle,200,2012-10-03 21:49:00
11:55 PM,51.8,50.0,94,29.74,5.0,SSW,8.1,-,N/A,Rain,Light Rain,200,2012-10-03 21:55:00